{"data":{"norad_id":60125,"epoch":"2026-05-24T21:24:29.682144Z","epoch_age_seconds":88300,"freshness":"FRESH","line1":"1 60125U 24118N   26144.89201021 -.00002267  00000+0 -13862-4 0  9992","line2":"2 60125  53.1602 205.4657 0000937 111.5063 248.6054 15.69707222109963","mean_motion":15.69707222,"eccentricity":9.37e-5,"inclination_deg":53.1602,"raan_deg":205.4657,"arg_perigee_deg":111.5063,"mean_anomaly_deg":248.6054,"bstar":-1.3862e-5,"rev_number":10996,"period_min":91.736852568294,"perigee_km":359.10336142585,"apogee_km":360.36603858243,"semimajor_km":6737.8717000041,"source":"CELESTRAK","updated_at":"2026-05-25T13:38:19.167999Z"}}